FW3258 Weather Reports


time (UTC)temp
F
wind
direction
speed
knots
gust
knots
rain 1hr
in
rain 24hr
in
rain mn
in
humidity
%
barometer
mb
20260509211824 64 242 2.6 3.5 0.00 0.00 0.00 53 1007.4
20260509210924 64 247 5.2 7.0 0.00 0.00 0.00 53 1007.3
20260509205925 63 219 7.8 9.6 0.00 0.00 0.00 54 1007.1
20260509204925 63 240 4.3 7.8 0.00 0.00 0.00 55 1007.4
20260509203925 63 225 4.3 6.1 0.00 0.00 0.00 54 1007.6
20260509202924 64 240 4.3 6.1 0.00 0.00 0.00 53 1007.7
20260509202023 65 220 3.5 5.2 0.00 0.00 0.00 54 1007.6
20260509201024 65 202 7.0 8.7 0.00 0.00 0.00 55 1007.7
20260509200025 65 0 1.7 7.0 0.00 0.00 0.00 55 1007.7
20260509195024 64 242 4.3 11.3 0.00 0.00 0.00 55 1007.9
20260509194023 64 240 6.1 7.8 0.00 0.00 0.00 56 1008.2
20260509193024 64 225 4.3 6.1 0.00 0.00 0.00 55 1008.3
20260509192024 63 217 7.0 9.6 0.00 0.00 0.00 55 1008.4
20260509191024 63 236 7.0 9.6 0.00 0.00 0.00 54 1008.5
20260509185024 63 247 3.5 6.1 0.00 0.00 0.00 56 1008.4
20260509183024 62 251 7.0 9.6 0.00 0.00 0.00 61 1008.4
20260509180023 61 299 4.3 6.1 0.00 0.00 0.00 64 1009.1
20260509175026 61 247 3.5 5.2 0.00 0.00 0.00 65 1009.1
20260509174123 60 264 5.2 6.1 0.00 0.00 0.00 63 1009.2
20260509171323 60 244 6.1 7.8 0.00 0.00 0.00 64 1009.3
20260509170325 59 215 5.2 7.0 0.00 0.00 0.00 66 1009.4
20260509165323 59 265 6.1 7.0 0.00 0.00 0.00 66 1009.6
20260509164326 59 270 7.8 8.7 0.00 0.00 0.00 65 1009.4
20260509163325 60 240 6.1 7.8 0.00 0.00 0.00 67 1009.6
20260509162423 59 270 5.2 7.8 0.00 0.00 0.00 68 1009.6
20260509161427 58 236 4.3 6.1 0.00 0.00 0.00 69 1009.9
20260509160524 58 236 4.3 5.2 0.00 0.00 0.00 70 1010.0
20260509155524 57 270 3.5 4.3 0.00 0.00 0.00 71 1010.1
20260509154523 57 270 7.0 9.6 0.00 0.00 0.00 72 1010.2
20260509153525 57 292 5.2 6.1 0.00 0.00 0.00 72 1010.2
20260509152524 57 247 5.2 6.1 0.00 0.00 0.00 74 1010.2
20260509151523 56 208 3.5 5.2 0.00 0.00 0.00 75 1010.2
20260509150524 56 225 2.6 5.2 0.00 0.00 0.00 77 1010.2
20260509145624 55 225 4.3 5.2 0.00 0.00 0.00 77 1010.3
20260509145525 55 225 4.3 4.3 0.00 0.00 0.00 76 1010.3
20260509144623 55 262 4.3 6.1 0.00 0.00 0.00 77 1010.2
20260509143642 55 258 3.5 4.3 0.00 0.00 0.00 78 1010.2
20260509141624 55 225 2.6 3.5 0.00 0.00 0.00 77 1010.5
20260509140625 55 261 4.3 6.1 0.00 0.00 0.00 79 1010.5
20260509135625 55 254 3.5 5.2 0.00 0.00 0.00 81 1010.5
20260509134623 54 270 2.6 3.5 0.00 0.00 0.00 82 1010.5
20260509134524 54 253 1.7 3.5 0.00 0.00 0.00 82 1010.4
20260509133623 54 292 0.0 0.9 0.00 0.00 0.00 84 1010.4
20260509131624 52 227 5.2 7.8 0.00 0.00 0.00 87 1010.8
20260509131523 52 231 2.6 4.3 0.00 0.00 0.00 87 1010.9
20260509125524 51 229 5.2 8.7 0.00 0.01 0.00 90 1010.8
20260509124524 50 67 0.0 0.0 0.00 0.01 0.00 91 1010.9
20260509123525 49 67 1.7 3.5 0.00 0.01 0.00 90 1010.8
20260509122543 49 67 0.9 1.7 0.00 0.01 0.00 92 1010.8
20260509121541 48 161 0.0 1.7 0.00 0.01 0.00 92 1011.0
20260509120526 48 180 0.9 0.9 0.00 0.01 0.00 93 1011.0
20260509115623 47 157 0.0 0.9 0.00 0.02 0.00 93 1011.0
20260509115523 47 157 0.0 1.7 0.00 0.02 0.00 94 1011.0
20260509113525 46 157 0.0 0.0 0.00 0.06 0.00 94 1010.8
20260509112524 45 225 0.0 0.0 0.00 0.06 0.00 94 1010.9
20260509111525 45 225 0.0 0.9 0.00 0.06 0.00 93 1011.0
20260509110623 44 157 0.0 0.0 0.00 0.06 0.00 94 1010.8
20260509105625 44 157 0.0 0.0 0.00 0.06 0.00 92 1010.7
20260509104624 43 157 0.0 0.0 0.00 0.07 0.00 92 1010.8
20260509103624 43 157 0.0 0.0 0.00 0.09 0.00 92 1010.7
20260509102723 43 157 0.0 0.0 0.00 0.10 0.00 93 1010.7
20260509101726 43 157 0.0 0.0 0.00 0.11 0.00 93 1010.7
20260509100823 43 157 0.0 0.0 0.00 0.11 0.00 93 1010.6
20260509095823 43 157 0.0 0.0 0.00 0.11 0.00 92 1010.7
20260509095723 43 157 0.0 0.0 0.00 0.11 0.00 92 1010.7
20260509094740 43 157 0.0 0.0 0.00 0.11 0.00 92 1010.7
20260509093724 42 157 0.0 0.0 0.00 0.11 0.00 92 1010.6
20260509092724 42 157 0.0 0.0 0.00 0.12 0.00 91 1010.6
20260509090725 42 67 0.0 0.0 0.00 0.12 0.00 91 1010.6
20260509085823 42 67 0.0 0.0 0.00 0.12 0.00 90 1010.7
20260509084923 42 45 0.0 0.0 0.00 0.12 0.00 89 1010.6
20260509083023 41 181 0.0 0.0 0.00 0.12 0.00 89 1010.7
20260509082024 41 180 0.0 0.0 0.00 0.12 0.00 89 1010.7
20260509081023 41 180 0.0 0.0 0.00 0.12 0.00 88 1010.8
20260509080024 41 180 0.0 0.0 0.00 0.12 0.00 87 1010.8
20260509075923 41 180 0.0 0.0 0.00 0.12 0.00 87 1010.8
20260509075823 41 180 0.0 0.0 0.00 0.12 0.00 87 1010.9
20260509074824 41 180 0.0 0.0 0.00 0.13 0.00 87 1011.0
20260509073826 41 180 0.0 0.0 0.00 0.13 0.00 87 1011.2
20260509072823 41 180 0.0 0.9 0.00 0.13 0.00 86 1011.1
20260509071824 41 67 0.9 0.9 0.00 0.13 0.00 86 1011.3
20260509070824 40 67 0.0 0.0 0.00 0.13 0.00 86 1011.3
20260509065823 39 67 0.0 0.0 0.00 0.13 0.00 86 1011.2
20260509064824 39 67 0.0 0.0 0.00 0.13 0.00 86 1011.2
20260509063923 39 67 0.0 0.0 0.00 0.13 0.00 85 1011.2
20260509061925 39 157 0.0 0.9 0.00 0.13 0.00 85 1011.6
20260509061024 38 157 0.0 0.0 0.00 0.13 0.00 85 1011.8
20260509060022 38 157 0.0 0.0 0.00 0.13 0.00 84 1012.0
20260509055023 38 157 0.0 0.0 0.00 0.13 0.00 83 1012.0
20260509054023 38 157 0.0 0.0 0.00 0.13 0.00 82 1012.1
20260509053026 38 157 0.0 0.0 0.00 0.13 0.00 81 1012.2
20260509052025 38 157 0.0 0.0 0.00 0.13 0.00 81 1012.3
20260509050123 38 157 0.0 0.0 0.00 0.13 0.00 79 1012.6
20260509044223 38 157 0.0 0.0 0.00 0.13 0.00 80 1012.7
20260509043322 38 157 0.0 0.0 0.00 0.13 0.00 81 1012.8
20260509042422 38 157 0.0 0.0 0.00 0.13 0.00 79 1012.8
20260509041424 38 157 0.0 0.0 0.00 0.13 0.00 80 1013.0
20260509040439 38 157 0.0 0.0 0.00 0.13 0.00 81 1013.0
20260509035527 38 157 0.0 0.0 0.00 0.13 0.13 80 1013.0
20260509034530 38 157 0.0 0.0 0.00 0.13 0.13 80 1013.1
20260509033627 38 157 0.0 0.0 0.00 0.13 0.13 79 1013.1
20260509032631 38 157 0.0 0.0 0.00 0.13 0.13 80 1013.3
20260509031630 38 157 0.0 0.0 0.00 0.13 0.13 78 1013.5
20260509030629 39 157 0.0 0.0 0.00 0.13 0.13 77 1013.6
20260509025727 39 157 0.0 0.0 0.00 0.13 0.13 77 1013.6
20260509025628 39 157 0.0 0.0 0.00 0.13 0.13 77 1013.6
20260509023729 39 225 0.0 0.0 0.00 0.13 0.13 80 1013.4
20260509022728 39 247 0.0 0.0 0.00 0.13 0.13 80 1013.4
20260509020845 39 247 0.0 0.0 0.00 0.13 0.13 80 1013.5
20260509015930 40 247 0.0 0.0 0.00 0.13 0.13 77 1013.4
20260509015027 41 247 0.0 0.0 0.00 0.13 0.13 75 1013.3
20260509014030 42 247 0.0 0.0 0.00 0.13 0.13 74 1013.4
20260509013030 43 247 0.0 0.0 0.00 0.13 0.13 69 1013.4
20260509012029 44 247 0.0 0.0 0.00 0.13 0.13 65 1013.4
20260509010028 47 247 0.0 0.0 0.00 0.13 0.13 56 1013.5
20260509005028 48 247 0.9 1.7 0.00 0.13 0.13 54 1013.5
20260509003028 49 270 0.0 0.0 0.00 0.13 0.13 48 1013.2
20260509001030 51 270 0.9 0.9 0.00 0.13 0.13 43 1013.3
20260509000128 51 270 0.0 0.9 0.00 0.13 0.13 41 1013.1
20260508235128 52 285 2.6 3.5 0.00 0.13 0.13 41 1013.1
20260508234227 52 270 3.5 4.3 0.00 0.13 0.13 40 1013.4
20260508233129 53 247 3.5 4.3 0.00 0.13 0.13 38 1013.3
20260508232228 53 270 3.5 3.5 0.00 0.13 0.13 36 1013.2
20260508231230 53 247 7.0 9.6 0.00 0.13 0.13 37 1013.4
20260508230228 53 277 6.1 7.8 0.00 0.13 0.13 36 1013.1
20260508225230 53 274 6.1 7.0 0.00 0.13 0.13 36 1013.3
20260508224228 53 270 9.6 11.3 0.00 0.13 0.13 36 1013.4
20260508223227 54 285 7.0 7.8 0.00 0.13 0.13 33 1013.3
20260508222229 54 270 9.6 12.2 0.00 0.13 0.13 31 1013.4
20260508221228 54 264 8.7 10.4 0.00 0.13 0.13 31 1013.3
20260508220229 54 258 6.1 6.1 0.00 0.13 0.13 31 1013.4
20260508220128 54 247 7.0 7.8 0.00 0.13 0.13 32 1013.4
20260508215129 54 270 7.8 9.6 0.00 0.13 0.13 30 1013.2
20260508214227 54 244 3.5 5.2 0.00 0.13 0.13 30 1013.2
20260508213228 54 270 8.7 11.3 0.00 0.13 0.13 30 1013.2